Mount Airy, NC

12:04 AM EDT on September 20, 2019 (GMT -0400)
Mount Airy-Surry County

Weather History for KMWK - July, 2019

Change the Weather History Date:

Saturday, July 20, 2019

  Actual Average (KINT) Record (KINT)
Temperature  
Mean Temperature 83 °F -  
Max Temperature 93 °F 85 °F 99 °F (1977)
Min Temperature 73 °F 67 °F 58 °F (1984)
Cooling Degree Days 18    
Growing Degree Days 33 (Base 50)    
Moisture  
Dew Point 74 °F    
Average Humidity 81    
Maximum Humidity 91    
Minimum Humidity 54    
Precipitation  
Precipitation 0.00 in - - ()
Sea Level Pressure  
Sea Level Pressure 30.06 in    
Wind  
Wind Speed 1 mph (WNW)    
Max Wind Speed 8 mph    
Max Gust Speed -    
Visibility 10 miles    
Events      
Averages and records for this station are not official NWS values.
T = Trace of Precipitation, MM = Missing Value Source: NWS Daily Summary

Daily Weather History Graph

Daily Weather History Graph

Search for Another Location

Airport or City:

Astronomy

Jul. 20, 2019 Rise Set
Actual Time 6:19 AM EDT 8:37 PM EDT
Civil Twilight 5:49 AM EDT 9:06 PM EDT
Nautical Twilight 5:13 AM EDT 9:42 PM EDT
Astronomical Twilight 4:34 AM EDT 10:22 PM EDT
Moon 11:09 PM EDT 9:37 AM EDT
Length of Visible Light 15h 17m
Length of Day
14h 18m
Waning Gibbous, 87% of the Moon is Illuminated
Jul 20
Waning Gibbous
Jul 24
Last Quarter
Jul 31
New
Aug 7
First Quarter
Aug 15
Full

Hourly Weather History & Observations

Time (EDT) Temp. Heat Index Dew Point Humidity Pressure Visibility Wind Dir Wind Speed Gust Speed Precip Events Conditions
12:00 AM 77.4 °F - 74.5 °F 91% 30.07 in 10.0 mi Calm Calm - N/A   Scattered Clouds
12:20 AM 77.5 °F - 74.7 °F 91% 30.07 in 10.0 mi Calm Calm - N/A   Scattered Clouds
12:40 AM 77.9 °F - 74.8 °F 90% 30.07 in 10.0 mi Calm Calm - N/A   Clear
1:00 AM 78.1 °F - 74.7 °F 89% 30.07 in 10.0 mi Calm Calm - N/A   Clear
1:20 AM 76.3 °F - 73.4 °F 91% 30.07 in 10.0 mi Calm Calm - N/A   Clear
1:40 AM 77.4 °F - 74.5 °F 91% 30.07 in 10.0 mi Calm Calm - N/A   Clear
2:00 AM 77.4 °F - 74.5 °F 91% 30.07 in 10.0 mi Calm Calm - N/A   Clear
2:20 AM 77.2 °F - 74.3 °F 91% 30.06 in 10.0 mi Calm Calm - N/A   Clear
2:40 AM 77.4 °F - 74.5 °F 91% 30.06 in 10.0 mi Calm Calm - N/A   Scattered Clouds
3:00 AM 77.4 °F - 74.5 °F 91% 30.06 in 10.0 mi Calm Calm - N/A   Scattered Clouds
3:20 AM 76.5 °F - 73.6 °F 91% 30.06 in 10.0 mi Calm Calm - N/A   Scattered Clouds
3:40 AM 76.1 °F - 73.4 °F 91% 30.06 in 10.0 mi Calm Calm - N/A   Scattered Clouds
4:00 AM 76.3 °F - 73.4 °F 91% 30.06 in 10.0 mi Calm Calm - N/A   Scattered Clouds
4:20 AM 76.1 °F - 73.2 °F 91% 30.05 in 10.0 mi Calm Calm - N/A   Clear
4:40 AM 75.7 °F - 73.0 °F 91% 30.05 in 10.0 mi Calm Calm - N/A   Clear
5:00 AM 75.4 °F - 72.7 °F 91% 30.05 in 7.0 mi Calm Calm - N/A   Clear
5:20 AM 75.6 °F - 72.7 °F 91% 30.05 in 10.0 mi North 3.5 mph - N/A   Clear
5:40 AM 75.2 °F - 72.5 °F 91% 30.05 in 10.0 mi Calm Calm - N/A   Clear
6:00 AM 74.7 °F - 71.8 °F 91% 30.06 in 5.0 mi Calm Calm - N/A   Clear
6:20 AM 73.9 °F - 71.2 °F 91% 30.07 in 5.0 mi Calm Calm - N/A   Clear
6:40 AM 73.8 °F - 70.9 °F 91% 30.07 in 5.0 mi Calm Calm - N/A   Clear
7:20 AM 75.6 °F - 72.7 °F 91% 30.08 in 10.0 mi Calm Calm - N/A   Clear
7:40 AM 76.6 °F - 73.8 °F 91% 30.08 in 10.0 mi Calm Calm - N/A   Clear
8:00 AM 78.6 °F - 74.8 °F 88% 30.09 in 10.0 mi Calm Calm - N/A   Clear
8:20 AM 81.1 °F 87.6 °F 75.9 °F 84% 30.09 in 10.0 mi Calm Calm - N/A   Clear
8:40 AM 81.9 °F 88.9 °F 75.7 °F 82% 30.10 in 10.0 mi Calm Calm - N/A   Clear
9:00 AM 82.4 °F 90.3 °F 76.3 °F 82% 30.10 in 10.0 mi Calm Calm - N/A   Clear
9:20 AM 83.3 °F 92.1 °F 76.6 °F 80% 30.10 in 10.0 mi Calm Calm - N/A   Clear
9:40 AM 84.4 °F 93.9 °F 76.5 °F 77% 30.10 in 10.0 mi Calm Calm - N/A   Clear
10:00 AM 85.5 °F 97.2 °F 77.9 °F 78% 30.10 in 10.0 mi Calm Calm - N/A   Clear
10:40 AM 88.0 °F 101.9 °F 78.3 °F 73% 30.09 in 10.0 mi NW 4.6 mph - N/A   Clear
11:00 AM 88.7 °F 102.8 °F 78.1 °F 71% 30.09 in 10.0 mi NNE 4.6 mph - N/A   Clear
11:20 AM 88.7 °F 102.2 °F 77.9 °F 70% 30.09 in 10.0 mi NW 5.8 mph - N/A   Clear
11:40 AM 89.4 °F 101.7 °F 76.8 °F 66% 30.09 in 10.0 mi North 5.8 mph - N/A   Clear
12:00 PM 90.3 °F 101.0 °F 75.4 °F 61% 30.09 in 10.0 mi NE 3.5 mph - N/A   Clear
12:20 PM 91.9 °F 103.9 °F 75.6 °F 59% 30.08 in 10.0 mi Calm Calm - N/A   Clear
12:40 PM 92.7 °F 105.0 °F 76.1 °F 58% 30.07 in 10.0 mi Calm Calm - N/A   Clear
1:00 PM 93.2 °F 103.7 °F 74.1 °F 54% 30.07 in 10.0 mi Calm Calm - N/A   Clear
1:20 PM 91.8 °F 103.4 °F 75.4 °F 59% 30.05 in 10.0 mi North 3.5 mph - N/A   Scattered Clouds
1:40 PM 90.9 °F 100.6 °F 74.1 °F 58% 30.05 in 10.0 mi Calm Calm - N/A   Scattered Clouds
2:00 PM 92.7 °F 102.4 °F 73.6 °F 54% 30.04 in 10.0 mi West 3.5 mph - N/A   Clear
2:20 PM 90.9 °F 100.0 °F 73.8 °F 57% 30.04 in 10.0 mi SSE 4.6 mph - N/A   Scattered Clouds
2:40 PM 88.9 °F 100.3 °F 76.1 °F 66% 30.06 in 10.0 mi South 8.1 mph - N/A   Scattered Clouds
3:00 PM 83.3 °F 90.5 °F 74.5 °F 75% 30.06 in 10.0 mi South 3.5 mph - N/A   Clear
3:20 PM 81.9 °F 87.7 °F 73.9 °F 77% 30.07 in 10.0 mi South 3.5 mph - N/A   Clear
3:40 PM 80.6 °F 85.2 °F 73.0 °F 78% 30.07 in 10.0 mi WSW 3.5 mph - N/A   Clear
4:00 PM 80.1 °F 84.1 °F 72.7 °F 78% 30.07 in 10.0 mi SSW 4.6 mph - N/A   Clear
4:20 PM 79.5 °F - 71.4 °F 76% 30.07 in 10.0 mi Calm Calm - N/A   Clear
4:40 PM 80.1 °F 83.8 °F 71.8 °F 76% 30.07 in 10.0 mi Calm Calm - N/A   Clear
5:00 PM 80.1 °F 83.8 °F 71.8 °F 76% 30.06 in 10.0 mi Calm Calm - N/A   Clear
5:20 PM 80.8 °F 84.9 °F 72.0 °F 74% 30.06 in 10.0 mi Calm Calm - N/A   Clear
5:40 PM 81.0 °F 85.4 °F 72.3 °F 75% 30.04 in 10.0 mi Calm Calm - N/A   Clear
6:00 PM 81.5 °F 86.7 °F 73.4 °F 76% 30.04 in 10.0 mi Calm Calm - N/A   Clear
6:20 PM 81.3 °F 86.5 °F 73.4 °F 77% 30.04 in 10.0 mi Calm Calm - N/A   Clear
6:40 PM 81.5 °F 87.4 °F 74.3 °F 79% 30.04 in 10.0 mi Calm Calm - N/A   Clear
7:00 PM 80.6 °F 85.7 °F 74.3 °F 81% 30.04 in 10.0 mi Calm Calm - N/A   Clear
7:20 PM 80.6 °F 85.9 °F 74.5 °F 82% 30.04 in 10.0 mi Calm Calm - N/A   Clear
7:40 PM 80.6 °F 86.0 °F 75.0 °F 83% 30.04 in 10.0 mi Calm Calm - N/A   Clear
8:20 PM 80.1 °F 84.9 °F 74.8 °F 84% 30.05 in 10.0 mi Calm Calm - N/A   Clear
8:40 PM 79.2 °F - 74.5 °F 86% 30.04 in 10.0 mi Calm Calm - N/A   Clear
9:00 PM 78.1 °F - 74.3 °F 88% 30.05 in 10.0 mi Calm Calm - N/A   Clear
9:20 PM 77.4 °F - 74.1 °F 90% 30.04 in 10.0 mi Calm Calm - N/A   Clear
9:40 PM 76.6 °F - 73.6 °F 90% 30.05 in 10.0 mi Calm Calm - N/A   Clear
10:00 PM 77.0 °F - 73.8 °F 90% 30.06 in 10.0 mi Calm Calm - N/A   Clear
10:20 PM 75.7 °F - 72.9 °F 91% 30.06 in 10.0 mi Calm Calm - N/A   Clear
10:40 PM 75.0 °F - 72.0 °F 90% 30.05 in 10.0 mi Calm Calm - N/A   Clear
11:00 PM 74.5 °F - 71.6 °F 91% 30.05 in 10.0 mi Calm Calm - N/A   Clear
11:20 PM 74.7 °F - 71.8 °F 91% 30.05 in 10.0 mi Calm Calm - N/A   Clear
11:40 PM 74.3 °F - 71.6 °F 91% 30.06 in 10.0 mi Calm Calm - N/A   Clear